Theta_e
331 330 329 329 331 331 331 331 332 331 332 331 332 331 329 329 329 329 327 327 327 327
334 333 331 330 330 333 334 333 332 332 331 332 332 332 331 329 329 329 328 327 327 327
334 334 334 332 331 332 333 333 332 332 333 333 333 333 332 332 331 330 329 329 328 326
331 332 333 332 331 332 333 333 333 333 333 333 333 333 333 332 331 330 330 329 328 327
318 326 331 332 333 333 333 334 334 333 332 333 331 331 331 331 331 331 330 330 329 328
308 310 315 322 325 328 328 332 331 333 329 331 333 332 332 332 332 332 332 332 331 330
306 308 309 310 314 319 324 326 328 331 328 330 333 333 333 333 332 331 332 333 333 333
303 304 305 306 307 309 310 315 323 325 326 328 329 329 330 331 332 331 331 331 332 333
301 301 302 303 304 305 306 307 314 315 320 322 323 307 303 308 322 325 330 332 332 333
299 299 299 300 300 302 302 304 307 309 312 315 318 306 301 298 317 320 323 325 328 330
297 297 297 297 298 298 300 301 304 305 309 311 313 300 299 297 314 317 318 318 319 321
295 294 295 295 296 297 298 299 301 302 304 307 310 299 297 301 312 312 312 312 312 313
293 293 292 293 294 295 297 298 298 299 301 301 306 299 298 301 307 305 301 299 300 297
291 291 292 292 293 293 294 295 296 296 298 300 301 305 299 298 304 303 296 294 293 293
Wind_Speed
20 13 14 14 11 12 13 12 11 14 14 15 12 12 11 10 11 12 12 16 13 10
12 13 11 11 9 9 10 10 10 11 12 10 10 10 11 9 12 11 11 13 13 11
9 9 8 6 7 9 7 7 6 8 12 13 12 14 13 12 11 12 10 10 11 11
4 6 6 6 6 7 5 9 9 11 9 9 9 10 11 12 11 13 13 11 13 14
17 12 7 5 1 3 6 9 8 5 2 3 6 8 11 13 13 14 14 15 14 15
18 15 14 12 7 5 5 1 1 7 4 2 5 9 9 13 13 15 15 15 16 16
15 14 13 12 10 8 8 6 3 3 6 4 8 11 10 12 14 13 12 14 14 14
14 13 13 14 13 10 10 9 8 4 3 6 5 3 7 10 10 9 10 10 11 14
16 15 13 14 14 14 12 10 7 6 6 4 2 6 10 8 5 5 6 9 9 12
17 17 16 15 13 11 11 11 11 8 6 7 6 11 12 4 3 3 4 7 8 9
17 17 17 17 15 13 11 11 10 10 7 6 7 11 11 9 4 5 7 8 9 8
17 17 16 17 17 16 13 13 11 11 12 10 10 9 10 7 6 6 9 7 6 7
17 17 17 18 18 15 14 15 12 14 13 12 11 11 12 10 6 7 5 6 7 8
16 16 16 16 15 14 15 15 14 15 14 14 13 10 9 11 7 7 5 5 5 4
Wind_Direction
214 213 221 216 210 207 202 211 204 206 214 217 213 208 197 202 212 210 213 215 215 218
224 226 229 226 221 221 220 203 187 190 197 207 213 207 207 212 217 217 218 223 225 219
208 218 217 204 202 214 227 234 219 181 184 194 200 208 204 217 221 212 221 224 223 225
307 209 199 202 192 192 165 205 198 200 199 203 214 213 213 214 217 219 224 222 223 223
18 358 326 313 263 144 206 220 192 113 105 253 213 233 230 233 223 218 222 225 225 229
15 12 5 3 348 310 282 264 219 197 199 236 225 267 220 231 227 225 220 224 226 229
8 358 3 3 5 356 333 319 355 256 204 256 266 250 249 238 236 231 227 226 230 233
351 357 360 355 356 2 2 354 354 347 272 216 225 201 235 240 235 237 242 237 232 238
347 349 353 347 347 354 347 360 345 331 291 344 285 252 244 229 234 239 261 260 254 245
344 343 343 336 335 337 344 338 336 325 324 295 271 267 273 257 244 223 248 272 266 253
335 333 330 325 324 330 332 329 319 309 289 270 263 260 263 277 265 251 235 239 251 261
328 319 320 319 320 321 322 314 307 305 305 299 277 265 250 245 261 261 262 265 261 270
321 315 321 314 311 311 309 300 302 301 294 284 272 231 231 247 245 248 248 259 267 266
316 310 306 307 306 306 304 297 297 296 294 290 284 286 235 252 259 252 240 246 260 251